FW2897 Weather Reports


Display with metric or nautical units.
time (UTC)temp
F
wind
direction
speed
MPH
gust
MPH
rain 1hr
in
rain 24hr
in
rain mn
in
humidity
%
barometer
mb
20260510111031 52 273 0.0 1.0 0.00 0.00 0.00 92 1012.6
20260510110505 52 237 0.0 1.0 0.00 0.00 0.00 92 1012.6
20260510105935 52 237 0.0 0.0 0.00 0.00 0.00 92 1012.5
20260510105701 52 237 0.0 2.0 0.00 0.00 0.00 92 1012.5
20260510104905 51 237 0.0 2.0 0.00 0.00 0.00 92 1012.5
20260510104339 51 309 0.0 2.0 0.00 0.00 0.00 92 1012.4
20260510104111 51 309 0.0 2.0 0.00 0.00 0.00 92 1012.3
20260510103326 51 252 0.0 0.0 0.00 0.00 0.00 92 1011.9
20260510102823 51 252 0.0 0.0 0.00 0.00 0.00 92 1011.8
20260510102323 51 252 0.0 0.0 0.00 0.00 0.00 92 1011.9
20260510101756 51 252 0.0 0.0 0.00 0.00 0.00 92 1011.9
20260510101519 51 252 0.0 0.0 0.00 0.00 0.00 92 1011.9
20260510100745 51 225 0.0 0.0 0.00 0.00 0.00 92 1012.0
20260510100508 51 225 0.0 0.0 0.00 0.00 0.00 92 1011.8
20260510095715 51 226 0.0 0.0 0.00 0.00 0.00 92 1011.8
20260510095438 51 226 0.0 1.0 0.00 0.00 0.00 92 1011.8
20260510094645 51 226 0.0 1.0 0.00 0.00 0.00 92 1011.7
20260510094142 51 225 0.0 1.0 0.00 0.00 0.00 92 1011.7
20260510093612 51 227 0.0 1.0 0.00 0.00 0.00 92 1011.6
20260510093109 51 226 0.0 4.0 0.00 0.00 0.00 92 1011.6
20260510092602 51 284 0.0 4.0 0.00 0.00 0.00 92 1011.6
20260510092102 51 286 0.0 4.0 0.00 0.00 0.00 92 1011.5
20260510091753 51 287 0.0 4.0 0.00 0.00 0.00 92 1011.8
20260510091255 51 243 1.0 5.0 0.00 0.00 0.00 92 1011.4
20260510090522 51 159 0.0 5.0 0.00 0.00 0.00 92 1011.4
20260510090024 51 245 0.0 6.0 0.00 0.00 0.00 92 1011.2
20260510085520 51 215 1.0 6.0 0.00 0.00 0.00 93 1011.3
20260510085024 51 11 1.0 7.0 0.00 0.00 0.00 93 1011.3
20260510084454 50 265 0.0 7.0 0.00 0.00 0.00 92 1011.4
20260510083955 50 202 0.0 0.0 0.00 0.00 0.00 92 1011.4
20260510083452 50 201 0.0 0.0 0.00 0.00 0.00 92 1011.2
20260510082950 50 201 0.0 0.0 0.00 0.00 0.00 92 1011.2
20260510082421 50 201 0.0 0.0 0.00 0.00 0.00 92 1011.2
20260510081912 50 201 0.0 0.0 0.00 0.00 0.00 92 1011.3
20260510081639 50 201 0.0 0.0 0.00 0.00 0.00 92 1011.0
20260510080900 50 201 0.0 0.0 0.00 0.00 0.00 91 1011.1
20260510080334 50 201 0.0 0.0 0.00 0.00 0.00 91 1011.1
20260510075809 50 201 0.0 0.0 0.00 0.00 0.00 91 1011.0
20260510075241 50 201 0.0 0.0 0.00 0.00 0.00 91 1010.9
20260510074737 50 201 0.0 0.0 0.00 0.00 0.00 91 1010.9
20260510074212 50 201 0.0 0.0 0.00 0.00 0.00 91 1011.0
20260510073645 50 201 0.0 0.0 0.00 0.00 0.00 91 1010.9
20260510073414 50 201 0.0 0.0 0.00 0.00 0.00 91 1010.9
20260510072642 50 201 0.0 0.0 0.00 0.00 0.00 91 1010.9
20260510072113 50 200 0.0 0.0 0.00 0.00 0.00 91 1010.7
20260510071611 50 201 0.0 0.0 0.00 0.00 0.00 91 1010.5
20260510071043 50 201 0.0 0.0 0.00 0.00 0.00 91 1010.6
20260510070813 50 201 0.0 0.0 0.00 0.00 0.00 91 1010.5
20260510070240 50 201 0.0 0.0 0.00 0.00 0.00 91 1010.4
20260510065516 50 201 0.0 0.0 0.00 0.00 0.00 91 1010.4
20260510065001 51 201 0.0 0.0 0.00 0.00 0.00 91 1010.5
20260510064726 51 201 0.0 0.0 0.00 0.00 0.00 91 1010.5
20260510063937 51 200 0.0 0.0 0.00 0.00 0.00 91 1010.6
20260510063410 51 201 0.0 0.0 0.00 0.00 0.00 91 1010.6
20260510062911 51 201 0.0 0.0 0.00 0.00 0.00 91 1010.7
20260510062349 51 201 0.0 0.0 0.00 0.00 0.00 91 1010.7
20260510061843 51 201 0.0 0.0 0.00 0.00 0.00 91 1010.7
20260510061344 51 201 0.0 0.0 0.00 0.00 0.00 91 1010.7
20260510060821 51 201 0.0 0.0 0.00 0.00 0.00 91 1010.8
20260510060300 51 201 0.0 0.0 0.00 0.00 0.00 91 1010.8
20260510055729 51 200 0.0 0.0 0.00 0.00 0.00 91 1010.8
20260510055228 51 201 0.0 0.0 0.00 0.00 0.00 91 1010.8
20260510054727 51 201 0.0 0.0 0.00 0.00 0.00 91 1010.8
20260510054207 51 201 0.0 0.0 0.00 0.00 0.00 90 1010.9
20260510053707 51 201 0.0 0.0 0.00 0.00 0.00 90 1011.0
20260510053142 51 201 0.0 0.0 0.00 0.00 0.00 90 1011.0
20260510052622 51 201 0.0 0.0 0.00 0.00 0.00 90 1011.0
20260510052100 51 201 0.0 0.0 0.00 0.00 0.00 90 1011.1
20260510051824 51 201 0.0 0.0 0.00 0.00 0.00 90 1011.2
20260510051038 51 201 0.0 0.0 0.00 0.00 0.00 90 1011.1
20260510050538 52 201 0.0 0.0 0.00 0.00 0.00 90 1011.2
20260510050050 52 201 0.0 0.0 0.00 0.00 0.00 90 1011.2
20260510045516 52 201 0.0 0.0 0.00 0.00 0.00 90 1011.2
20260510045004 52 201 0.0 0.0 0.00 0.00 0.00 90 1011.3
20260510044725 52 200 0.0 0.0 0.00 0.00 0.00 90 1011.2
20260510044219 52 201 0.0 0.0 0.00 0.00 0.00 90 1011.3
20260510043452 52 201 0.0 0.0 0.00 0.00 0.00 90 1011.3
20260510042953 52 201 0.0 0.0 0.00 0.00 0.00 90 1011.3
20260510042434 52 201 0.0 0.0 0.00 0.00 0.00 89 1011.3
20260510042359 52 201 0.0 0.0 0.00 0.00 0.00 89 1011.4
20260510041342 52 201 0.0 0.0 0.00 0.00 0.00 89 1011.3
20260510040817 52 201 0.0 0.0 0.00 0.00 0.00 89 1011.4
20260510040252 52 201 0.0 0.0 0.00 0.00 0.00 89 1011.4
20260510035724 52 201 0.0 0.0 0.00 0.00 0.00 89 1011.4
20260510035200 53 201 0.0 0.0 0.00 0.00 0.00 89 1011.5
20260510034655 53 200 0.0 0.0 0.00 0.00 0.00 89 1011.4
20260510034153 53 201 0.0 0.0 0.00 0.00 0.00 89 1011.4
20260510033650 53 201 0.0 0.0 0.00 0.00 0.00 88 1011.2
20260510033144 53 201 0.0 0.0 0.00 0.00 0.00 88 1011.2
20260510032645 53 201 0.0 0.0 0.00 0.00 0.00 88 1011.2
20260510032128 53 201 0.0 0.0 0.00 0.00 0.00 88 1011.0
20260510031547 53 201 0.0 0.0 0.00 0.00 0.00 88 1011.2
20260510031023 53 201 0.0 0.0 0.00 0.00 0.00 88 1011.0
20260510030455 53 201 0.0 0.0 0.00 0.00 0.00 88 1011.0
20260510025938 53 201 0.0 0.0 0.00 0.00 0.00 88 1010.9
20260510025435 54 201 0.0 0.0 0.00 0.00 0.00 88 1010.9
20260510024920 54 201 0.0 0.0 0.00 0.00 0.00 87 1011.0
20260510024419 54 201 0.0 0.0 0.00 0.00 0.00 87 1010.9
20260510023922 54 201 0.0 0.0 0.00 0.00 0.00 87 1010.9
20260510023415 54 201 0.0 0.0 0.00 0.00 0.00 87 1010.9
20260510022912 54 201 0.0 0.0 0.00 0.00 0.00 87 1011.0
20260510022343 54 200 0.0 0.0 0.00 0.00 0.00 87 1011.0
20260510021842 54 198 0.0 0.0 0.00 0.00 0.00 87 1011.0
20260510021757 54 198 0.0 0.0 0.00 0.00 0.00 87 1010.9
20260510020810 54 198 0.0 0.0 0.00 0.00 0.00 87 1010.9
20260510020307 54 198 0.0 0.0 0.00 0.00 0.00 86 1010.9
20260510015805 54 139 0.0 0.0 0.00 0.00 0.00 86 1010.9
20260510015236 55 139 0.0 0.0 0.00 0.00 0.00 86 1010.7
20260510014736 55 139 0.0 0.0 0.00 0.00 0.00 86 1010.7
20260510014208 55 139 0.0 0.0 0.00 0.00 0.00 86 1010.6
20260510013929 55 130 0.0 0.0 0.00 0.00 0.00 85 1010.8
20260510013139 55 130 0.0 0.0 0.00 0.00 0.00 85 1010.7
20260510012852 55 130 0.0 0.0 0.00 0.00 0.00 85 1010.7
20260510012124 56 130 0.0 0.0 0.00 0.00 0.00 84 1010.5
20260510011850 56 131 0.0 0.0 0.00 0.00 0.00 84 1010.6
20260510011121 56 130 0.0 0.0 0.00 0.00 0.00 83 1010.5
20260510010552 56 130 0.0 0.0 0.00 0.00 0.00 83 1010.4
20260510010342 56 131 0.0 0.0 0.00 0.00 0.00 83 1010.3
20260510005521 57 130 0.0 0.0 0.00 0.00 0.00 82 1010.3
20260510004958 57 130 0.0 0.0 0.00 0.00 0.00 82 1010.3
20260510004430 57 131 0.0 0.0 0.00 0.00 0.00 81 1010.1
20260510004150 58 130 0.0 1.0 0.00 0.00 0.00 81 1010.1
20260510003423 58 130 0.0 1.0 0.00 0.00 0.00 80 1010.1
20260510002921 58 131 0.0 1.0 0.00 0.00 0.00 80 1010.1
20260510002623 58 142 0.0 1.0 0.00 0.00 0.00 79 1010.0
20260510001850 59 135 0.0 2.0 0.00 0.00 0.00 79 1010.3
20260510001341 59 135 0.0 2.0 0.00 0.00 0.00 79 1010.3
20260510000815 59 79 0.0 1.0 0.00 0.00 0.00 78 1010.1
20260510000248 59 77 0.0 1.0 0.00 0.00 0.00 78 1010.0
20260509235745 60 77 0.0 2.0 0.00 0.00 0.00 77 1010.1
20260509235215 60 77 0.0 2.0 0.00 0.00 0.00 77 1010.1
20260509234652 60 105 0.0 2.0 0.00 0.00 0.00 76 1010.1
20260509234122 60 120 0.0 3.0 0.00 0.00 0.00 75 1010.1
20260509233619 61 88 0.0 3.0 0.00 0.00 0.00 75 1010.0
20260509233055 61 110 0.0 2.0 0.00 0.00 0.00 74 1010.0
20260509232550 61 113 0.0 2.0 0.00 0.00 0.00 73 1010.1
20260509232049 62 142 0.0 1.0 0.00 0.00 0.00 72 1009.9
20260509231744 62 142 0.0 1.0 0.00 0.00 0.00 72 1010.0
20260509231244 62 142 0.0 2.0 0.00 0.00 0.00 72 1010.0
20260509230454 62 94 0.0 2.0 0.00 0.00 0.00 72 1009.9
20260509225950 62 135 0.0 0.0 0.00 0.00 0.00 73 1009.9
20260509225645 62 150 0.0 1.0 0.00 0.00 0.00 74 1009.9
20260509224916 61 230 0.0 1.0 0.00 0.00 0.00 74 1009.9
20260509224351 61 288 0.0 1.0 0.00 0.00 0.00 73 1009.9
20260509223851 61 289 0.0 1.0 0.00 0.00 0.00 75 1009.8
20260509223342 61 291 0.0 3.0 0.00 0.00 0.00 75 1010.0
20260509222821 61 146 0.0 3.0 0.00 0.00 0.00 75 1010.0
20260509222252 61 93 1.0 3.0 0.00 0.00 0.00 75 1010.1
20260509221752 61 116 0.0 3.0 0.00 0.00 0.00 75 1010.0
20260509221500 61 238 0.0 2.0 0.00 0.00 0.00 76 1009.9
20260509220736 61 208 0.0 3.0 0.00 0.00 0.00 76 1010.0
20260509220236 60 187 0.0 3.0 0.00 0.00 0.00 77 1010.1
20260509215712 60 218 0.0 2.0 0.00 0.00 0.00 77 1010.1
20260509215208 61 226 0.0 1.0 0.00 0.00 0.00 76 1010.1
20260509214708 61 229 0.0 1.0 0.00 0.00 0.00 76 1010.1
20260509214156 61 214 0.0 1.0 0.00 0.00 0.00 75 1010.1
20260509213655 61 210 0.0 1.0 0.00 0.00 0.00 75 1010.1
20260509213153 61 210 0.0 2.0 0.00 0.00 0.00 75 1010.0
20260509212652 61 120 0.0 2.0 0.00 0.00 0.00 75 1010.1
20260509212353 61 118 0.0 1.0 0.00 0.00 0.00 75 1010.0
20260509211627 61 114 0.0 1.0 0.00 0.00 0.00 75 1009.9
20260509211109 61 110 0.0 1.0 0.00 0.00 0.00 75 1010.0
20260509210624 61 110 0.0 1.0 0.00 0.00 0.00 75 1010.0
20260509210053 61 113 0.0 2.0 0.00 0.00 0.00 75 1009.9
20260509205524 61 135 0.0 3.0 0.00 0.00 0.00 74 1010.0
20260509205224 61 227 0.0 3.0 0.00 0.00 0.00 73 1010.0
20260509204701 62 248 1.0 3.0 0.00 0.00 0.00 74 1010.1
20260509203933 62 290 1.0 3.0 0.00 0.00 0.00 72 1010.3
20260509203411 62 241 0.0 3.0 0.00 0.00 0.00 72 1009.9
20260509202846 62 103 0.0 1.0 0.00 0.00 0.00 73 1010.0
20260509202343 62 194 0.0 5.0 0.00 0.00 0.00 72 1009.9
20260509202326 62 284 1.0 5.0 0.00 0.00 0.00 71 1009.9
20260509201544 62 269 1.0 4.0 0.00 0.00 0.00 72 1010.0
20260509200753 62 304 0.0 3.0 0.00 0.00 0.00 73 1010.0
20260509200246 62 97 1.0 5.0 0.00 0.00 0.00 73 1010.0
20260509195758 61 214 1.0 6.0 0.00 0.00 0.00 72 1010.1
20260509195225 61 134 1.0 6.0 0.00 0.00 0.00 72 1009.9
20260509194727 62 207 1.0 6.0 0.00 0.00 0.00 72 1009.9
20260509194225 62 46 1.0 6.0 0.00 0.00 0.00 70 1010.0
20260509193724 62 214 1.0 5.0 0.00 0.00 0.00 71 1010.1
20260509193228 62 354 1.0 7.0 0.00 0.00 0.00 70 1010.5
20260509192700 62 257 1.0 7.0 0.00 0.00 0.00 70 1010.5
20260509192131 62 222 2.0 6.0 0.00 0.00 0.00 70 1010.5
20260509191625 61 276 1.0 5.0 0.00 0.00 0.00 70 1010.6
20260509191100 61 91 1.0 4.0 0.00 0.00 0.00 71 1010.7
20260509190528 61 276 1.0 5.0 0.00 0.00 0.00 70 1010.8
20260509190224 61 19 1.0 6.0 0.00 0.00 0.00 71 1010.9
20260509185452 61 302 2.0 6.0 0.00 0.00 0.00 71 1011.0
20260509184956 61 310 1.0 6.0 0.00 0.00 0.00 70 1011.0
20260509184428 61 294 1.0 4.0 0.00 0.00 0.00 71 1011.1
20260509183903 61 302 1.0 5.0 0.00 0.00 0.00 70 1010.9
20260509183333 61 283 1.0 5.0 0.00 0.00 0.00 70 1011.0
20260509182831 61 311 1.0 5.0 0.00 0.00 0.00 69 1010.8
20260509182330 61 96 2.0 7.0 0.00 0.00 0.00 69 1010.9
20260509181829 62 295 2.0 7.0 0.00 0.00 0.00 69 1011.0
20260509181332 63 294 2.0 9.0 0.00 0.00 0.00 69 1011.0
20260509180804 63 333 2.0 10.0 0.00 0.00 0.00 69 1011.1
20260509180300 64 290 2.0 10.0 0.00 0.00 0.00 67 1011.1
20260509175757 64 274 1.0 7.0 0.00 0.00 0.00 65 1011.1
20260509175256 65 305 1.0 4.0 0.00 0.00 0.00 63 1011.1
20260509174730 65 298 1.0 4.0 0.00 0.00 0.00 63 1011.1
20260509174224 65 287 1.0 3.0 0.00 0.00 0.00 62 1011.0
20260509173721 65 291 1.0 3.0 0.00 0.00 0.00 62 1011.0
20260509173215 65 306 1.0 4.0 0.00 0.00 0.00 61 1011.0
20260509172713 66 295 1.0 4.0 0.00 0.00 0.00 63 1010.9
20260509172159 66 287 1.0 4.0 0.00 0.00 0.00 64 1011.0
20260509171702 66 282 1.0 4.0 0.00 0.00 0.00 63 1011.1
20260509171136 66 241 1.0 3.0 0.00 0.00 0.00 64 1010.9
20260509170607 65 349 1.0 6.0 0.00 0.00 0.00 64 1011.0
20260509170110 65 287 1.0 6.0 0.00 0.00 0.00 63 1011.0
20260509165537 65 326 2.0 7.0 0.00 0.00 0.00 63 1011.0
20260509165257 66 269 1.0 7.0 0.00 0.00 0.00 63 1011.1
20260509164531 66 323 1.0 6.0 0.00 0.00 0.00 64 1011.1
20260509164031 65 298 1.0 6.0 0.00 0.00 0.00 64 1011.0
20260509163501 65 252 2.0 8.0 0.00 0.00 0.00 64 1011.0
20260509163229 65 311 2.0 8.0 0.00 0.00 0.00 63 1011.0
20260509162455 65 266 2.0 6.0 0.00 0.00 0.00 63 1011.0
20260509161954 65 299 2.0 7.0 0.00 0.00 0.00 63 1011.1
20260509161426 65 299 2.0 6.0 0.00 0.00 0.00 62 1011.2
20260509160925 66 285 1.0 6.0 0.00 0.00 0.00 62 1011.2
20260509160621 66 338 1.0 5.0 0.00 0.00 0.00 63 1011.3
20260509160114 67 324 1.0 5.0 0.00 0.00 0.00 62 1011.3
20260509155626 67 16 1.0 4.0 0.00 0.00 0.00 62 1011.4
20260509154825 67 323 1.0 5.0 0.00 0.00 0.00 61 1011.6
20260509154258 66 295 1.0 5.0 0.00 0.00 0.00 61 1011.7
20260509154018 66 236 1.0 4.0 0.00 0.00 0.00 61 1011.8
20260509153226 66 297 1.0 4.0 0.00 0.00 0.00 62 1011.9
20260509152715 66 343 1.0 5.0 0.00 0.00 0.00 61 1011.9
20260509152213 66 292 1.0 5.0 0.00 0.00 0.00 62 1012.0
20260509151717 66 313 0.0 3.0 0.00 0.00 0.00 62 1012.0
20260509151147 65 274 1.0 2.0 0.00 0.00 0.00 62 1012.0
20260509150647 65 207 1.0 2.0 0.00 0.00 0.00 62 1012.1
20260509150120 65 300 1.0 5.0 0.00 0.00 0.00 62 1012.1
20260509145815 65 242 2.0 8.0 0.00 0.00 0.00 62 1012.1
20260509145053 65 225 2.0 8.0 0.00 0.00 0.00 62 1012.1
20260509144547 66 238 1.0 4.0 0.00 0.00 0.00 62 1012.0
20260509144057 65 235 1.0 5.0 0.00 0.00 0.00 63 1012.0
20260509143806 65 240 1.0 10.0 0.00 0.00 0.00 63 1012.0
20260509143756 65 196 1.0 5.0 0.00 0.00 0.00 63 1012.0
20260509142526 65 164 2.0 10.0 0.00 0.00 0.00 63 1011.9
20260509142027 65 291 2.0 6.0 0.00 0.00 0.00 64 1011.9
20260509141748 65 294 1.0 6.0 0.00 0.00 0.00 63 1011.9
20260509141024 65 0 2.0 4.0 0.00 0.00 0.00 66 1011.9
20260509140501 64 315 2.0 6.0 0.00 0.00 0.00 69 1011.8
20260509140002 64 214 1.0 5.0 0.00 0.00 0.00 69 1011.9
20260509135458 63 234 2.0 5.0 0.00 0.00 0.00 72 1011.9
20260509134957 62 203 2.0 7.0 0.00 0.00 0.00 72 1011.8
20260509134717 62 200 2.0 7.0 0.00 0.00 0.00 73 1011.8
20260509133935 62 229 2.0 9.0 0.00 0.00 0.00 74 1011.7
20260509133432 62 86 3.0 9.0 0.00 0.00 0.00 74 1011.8
20260509132934 62 193 2.0 8.0 0.00 0.00 0.00 73 1011.8
20260509132637 62 195 3.0 8.0 0.00 0.00 0.00 74 1011.8
20260509131848 62 87 2.0 7.0 0.00 0.00 0.00 73 1011.8
20260509131553 62 240 1.0 5.0 0.00 0.00 0.00 74 1011.9
20260509130805 61 220 2.0 4.0 0.00 0.00 0.00 75 1011.9
20260509130504 61 336 2.0 6.0 0.00 0.00 0.00 75 1012.0
20260509130200 61 104 2.0 6.0 0.00 0.00 0.00 76 1012.0
20260509125150 60 219 2.0 9.0 0.00 0.00 0.00 76 1012.1
20260509124852 60 205 3.0 9.0 0.00 0.00 0.00 76 1012.1
20260509124127 60 122 2.0 7.0 0.00 0.00 0.00 77 1012.1
20260509123625 60 120 2.0 6.0 0.00 0.00 0.00 77 1012.1
20260509123125 60 236 2.0 7.0 0.00 0.00 0.00 78 1012.0
20260509122820 60 233 2.0 9.0 0.00 0.00 0.00 78 1012.0
20260509122031 59 176 3.0 9.0 0.00 0.00 0.00 78 1012.0
20260509121529 59 213 2.0 7.0 0.00 0.00 0.00 78 1012.1
20260509121003 59 165 1.0 5.0 0.00 0.00 0.00 79 1012.0
20260509120437 59 143 2.0 6.0 0.00 0.00 0.00 79 1012.1
20260509115908 59 224 2.0 6.0 0.00 0.00 0.00 78 1011.9
20260509115407 59 183 2.0 6.0 0.00 0.00 0.00 79 1012.0
20260509114838 59 207 2.0 7.0 0.00 0.00 0.00 78 1012.0
20260509114313 59 188 2.0 7.0 0.00 0.00 0.00 78 1012.0
20260509113748 58 231 1.0 5.0 0.00 0.00 0.00 79 1011.9
20260509113221 58 205 1.0 5.0 0.00 0.00 0.00 79 1011.9
20260509112916 58 176 1.0 6.0 0.00 0.00 0.00 79 1011.9
20260509112418 58 129 2.0 6.0 0.00 0.00 0.00 79 1012.0
20260509111625 58 189 2.0 5.0 0.00 0.00 0.00 79 1011.9